GAOFEN-13 01

Last updated on Tue Jul 01 2025 00:02:48 GMT+0000 (Coordinated Universal Time)

1 46610U 20071A 25181.57564103 -.00000363 00000+0 00000+0 0 9996 2 46610 0.6414 85.2152 0016204 125.5730 33.1645 1.00265254 17390
UTC large
Height (km)
Speed (km/s)
/
Latitude / Longitude
Inclination (degrees)
Orbital Period (minutes)
Azimuth
Elevation
Range (km)
Doppler Factor

Next 0 passes for location: London (51.5072 / 0.1276)

Sorry there are no passes over London.